| time (UTC) | temp F | wind direction | speed knots | gust knots | rain 1hr in | rain 24hr in | rain mn in | humidity % | barometer mb |
| 20260905204925 | 90 | 274 | 1.7 | 2.6 | 0.00 | 0.00 | 0.00 | 65 | 1013.7 |
| 20260905204421 | 90 | 240 | 1.7 | 2.6 | 0.00 | 0.00 | 0.00 | 66 | 1013.6 |
| 20260905203921 | 90 | 227 | 1.7 | 2.6 | 0.00 | 0.00 | 0.00 | 63 | 1014.0 |
| 20260905203416 | 89 | 234 | 1.7 | 3.5 | 0.00 | 0.00 | 0.00 | 61 | 1013.9 |
| 20260905202912 | 89 | 242 | 0.9 | 5.2 | 0.00 | 0.00 | 0.00 | 62 | 1013.9 |
| 20260905202407 | 88 | 247 | 2.6 | 6.1 | 0.00 | 0.00 | 0.00 | 63 | 1013.9 |
| 20260905201903 | 88 | 282 | 4.3 | 5.2 | 0.00 | 0.00 | 0.00 | 57 | 1014.0 |
| 20260905201358 | 87 | 231 | 0.9 | 1.7 | 0.00 | 0.00 | 0.00 | 57 | 1014.0 |
| 20260905200857 | 86 | 257 | 2.6 | 2.6 | 0.00 | 0.00 | 0.00 | 61 | 1014.1 |
| 20260905200353 | 84 | 262 | 2.6 | 2.6 | 0.00 | 0.00 | 0.00 | 66 | 1014.1 |
| 20260905195851 | 84 | 239 | 1.7 | 3.5 | 0.00 | 0.00 | 0.00 | 65 | 1014.3 |
| 20260905195347 | 84 | 297 | 4.3 | 7.8 | 0.00 | 0.00 | 0.00 | 62 | 1014.5 |
| 20260905194842 | 85 | 280 | 3.5 | 9.6 | 0.00 | 0.00 | 0.00 | 66 | 1014.4 |
| 20260905194342 | 88 | 279 | 5.2 | 9.6 | 0.00 | 0.00 | 0.00 | 67 | 1014.7 |
| 20260905193841 | 89 | 235 | 0.9 | 1.7 | 0.00 | 0.00 | 0.00 | 73 | 1014.2 |
| 20260905193336 | 89 | 229 | 0.9 | 2.6 | 0.00 | 0.00 | 0.00 | 70 | 1014.4 |
| 20260905192832 | 90 | 321 | 1.7 | 2.6 | 0.00 | 0.00 | 0.00 | 67 | 1014.5 |
| 20260905192328 | 91 | 345 | 0.0 | 0.9 | 0.00 | 0.00 | 0.00 | 70 | 1014.1 |
| 20260905191827 | 92 | 336 | 3.5 | 3.5 | 0.00 | 0.00 | 0.00 | 68 | 1014.4 |
| 20260905191326 | 93 | 211 | 0.9 | 2.6 | 0.00 | 0.00 | 0.00 | 63 | 1014.5 |
| 20260905190825 | 92 | 242 | 0.9 | 1.7 | 0.00 | 0.00 | 0.00 | 66 | 1014.4 |
| 20260905190324 | 92 | 248 | 1.7 | 1.7 | 0.00 | 0.00 | 0.00 | 63 | 1014.6 |
| 20260905185823 | 93 | 208 | 1.7 | 1.7 | 0.00 | 0.00 | 0.00 | 63 | 1014.2 |
| 20260905185319 | 93 | 215 | 2.6 | 5.2 | 0.00 | 0.00 | 0.00 | 64 | 1014.4 |
| 20260905184818 | 92 | 186 | 0.0 | 0.9 | 0.00 | 0.00 | 0.00 | 65 | 1014.5 |
| 20260905184317 | 91 | 214 | 0.0 | 1.7 | 0.00 | 0.00 | 0.00 | 68 | 1014.9 |
| 20260905183816 | 91 | 221 | 0.9 | 5.2 | 0.00 | 0.00 | 0.00 | 64 | 1014.9 |
| 20260905183312 | 91 | 208 | 1.7 | 1.7 | 0.00 | 0.00 | 0.00 | 65 | 1014.8 |
| 20260905182812 | 92 | 216 | 0.0 | 1.7 | 0.00 | 0.00 | 0.00 | 65 | 1015.0 |
| 20260905182311 | 90 | 190 | 0.9 | 1.7 | 0.00 | 0.00 | 0.00 | 65 | 1015.1 |
| 20260905181807 | 91 | 240 | 0.9 | 2.6 | 0.00 | 0.00 | 0.00 | 65 | 1015.0 |
| 20260905181301 | 89 | 205 | 0.9 | 2.6 | 0.00 | 0.00 | 0.00 | 68 | 1015.2 |
| 20260905180800 | 90 | 263 | 1.7 | 2.6 | 0.00 | 0.00 | 0.00 | 67 | 1015.4 |
| 20260905180256 | 89 | 194 | 1.7 | 2.6 | 0.00 | 0.00 | 0.00 | 71 | 1015.3 |
| 20260905175755 | 89 | 245 | 3.5 | 3.5 | 0.00 | 0.00 | 0.00 | 72 | 1015.3 |
| 20260905175250 | 89 | 204 | 0.9 | 5.2 | 0.00 | 0.00 | 0.00 | 67 | 1015.5 |
| 20260905174745 | 89 | 201 | 0.9 | 3.5 | 0.00 | 0.00 | 0.00 | 71 | 1015.6 |
| 20260905174241 | 88 | 235 | 2.6 | 3.5 | 0.00 | 0.00 | 0.00 | 70 | 1015.6 |
| 20260905173737 | 88 | 195 | 1.7 | 1.7 | 0.00 | 0.00 | 0.00 | 75 | 1015.4 |
| 20260905173232 | 89 | 184 | 0.9 | 3.5 | 0.00 | 0.00 | 0.00 | 69 | 1015.5 |
| 20260905172727 | 88 | 191 | 0.9 | 1.7 | 0.00 | 0.00 | 0.00 | 71 | 1015.4 |
| 20260905172226 | 88 | 144 | 1.7 | 2.6 | 0.00 | 0.00 | 0.00 | 69 | 1015.7 |
| 20260905171722 | 88 | 191 | 0.9 | 2.6 | 0.00 | 0.00 | 0.00 | 71 | 1015.7 |
| 20260905171218 | 87 | 145 | 3.5 | 3.5 | 0.00 | 0.00 | 0.00 | 70 | 1015.7 |
| 20260905170715 | 87 | 169 | 2.6 | 3.5 | 0.00 | 0.00 | 0.00 | 70 | 1015.9 |
| 20260905170215 | 87 | 171 | 2.6 | 5.2 | 0.00 | 0.00 | 0.00 | 71 | 1015.9 |
| 20260905165715 | 86 | 201 | 0.9 | 3.5 | 0.00 | 0.00 | 0.00 | 72 | 1015.8 |
| 20260905165210 | 87 | 227 | 2.6 | 6.1 | 0.00 | 0.00 | 0.00 | 71 | 1016.0 |
| 20260905164705 | 86 | 169 | 1.7 | 2.6 | 0.00 | 0.00 | 0.00 | 71 | 1016.1 |
| 20260905164204 | 85 | 189 | 1.7 | 6.1 | 0.00 | 0.00 | 0.00 | 72 | 1015.9 |
| 20260905163700 | 86 | 225 | 1.7 | 2.6 | 0.00 | 0.00 | 0.00 | 71 | 1015.9 |
| 20260905163157 | 85 | 188 | 1.7 | 3.5 | 0.00 | 0.00 | 0.00 | 75 | 1015.9 |
| 20260905162653 | 84 | 189 | 3.5 | 6.1 | 0.00 | 0.00 | 0.00 | 75 | 1015.8 |
| 20260905162152 | 84 | 143 | 1.7 | 5.2 | 0.00 | 0.00 | 0.00 | 72 | 1015.8 |
| 20260905161648 | 85 | 141 | 4.3 | 5.2 | 0.00 | 0.00 | 0.00 | 70 | 1015.9 |
| 20260905161145 | 85 | 196 | 3.5 | 7.0 | 0.00 | 0.00 | 0.00 | 69 | 1016.0 |
| 20260905160644 | 85 | 223 | 2.6 | 6.1 | 0.00 | 0.00 | 0.00 | 72 | 1015.8 |
| 20260905160143 | 86 | 154 | 4.3 | 5.2 | 0.00 | 0.00 | 0.00 | 70 | 1015.7 |
| 20260905155638 | 85 | 196 | 5.2 | 6.1 | 0.00 | 0.00 | 0.00 | 70 | 1015.8 |
| 20260905155137 | 85 | 170 | 2.6 | 6.1 | 0.00 | 0.00 | 0.00 | 70 | 1016.0 |
| 20260905154631 | 85 | 143 | 4.3 | 6.1 | 0.00 | 0.00 | 0.00 | 68 | 1016.3 |
| 20260905154127 | 84 | 132 | 1.7 | 7.0 | 0.00 | 0.00 | 0.00 | 69 | 1016.3 |
| 20260905153623 | 83 | 178 | 2.6 | 7.0 | 0.00 | 0.00 | 0.00 | 70 | 1016.2 |
| 20260905153118 | 83 | 152 | 3.5 | 7.0 | 0.00 | 0.00 | 0.00 | 71 | 1016.1 |
| 20260905152613 | 84 | 149 | 3.5 | 8.7 | 0.00 | 0.00 | 0.00 | 71 | 1016.1 |
| 20260905152108 | 84 | 196 | 1.7 | 3.5 | 0.00 | 0.00 | 0.00 | 73 | 1016.0 |
| 20260905151602 | 83 | 99 | 6.1 | 8.7 | 0.00 | 0.00 | 0.00 | 75 | 1016.0 |
| 20260905151058 | 83 | 136 | 3.5 | 7.0 | 0.00 | 0.00 | 0.00 | 75 | 1015.9 |
| 20260905150553 | 83 | 206 | 4.3 | 7.0 | 0.00 | 0.00 | 0.00 | 74 | 1015.9 |
| 20260905150052 | 83 | 192 | 1.7 | 6.1 | 0.00 | 0.00 | 0.00 | 74 | 1016.4 |
| 20260905145550 | 83 | 202 | 4.3 | 7.0 | 0.00 | 0.00 | 0.00 | 75 | 1016.3 |
| 20260905145049 | 83 | 183 | 2.6 | 6.1 | 0.00 | 0.00 | 0.00 | 76 | 1016.5 |
| 20260905144544 | 82 | 145 | 4.3 | 7.0 | 0.00 | 0.00 | 0.00 | 76 | 1016.4 |
| 20260905144044 | 83 | 155 | 1.7 | 6.1 | 0.00 | 0.00 | 0.00 | 77 | 1016.2 |
| 20260905143544 | 83 | 145 | 4.3 | 5.2 | 0.00 | 0.00 | 0.00 | 76 | 1015.9 |
| 20260905143039 | 81 | 192 | 4.3 | 8.7 | 0.00 | 0.00 | 0.00 | 78 | 1016.1 |
| 20260905142538 | 82 | 114 | 1.7 | 3.5 | 0.00 | 0.00 | 0.00 | 78 | 1016.1 |
| 20260905142033 | 81 | 122 | 3.5 | 7.0 | 0.00 | 0.00 | 0.00 | 80 | 1016.0 |
| 20260905141532 | 81 | 160 | 4.3 | 7.0 | 0.00 | 0.00 | 0.00 | 79 | 1016.1 |
| 20260905141029 | 81 | 185 | 3.5 | 5.2 | 0.00 | 0.00 | 0.00 | 80 | 1016.2 |
| 20260905140529 | 81 | 170 | 1.7 | 8.7 | 0.00 | 0.00 | 0.00 | 82 | 1016.2 |
| 20260905140028 | 80 | 117 | 4.3 | 6.1 | 0.00 | 0.00 | 0.00 | 82 | 1016.1 |
| 20260905135524 | 80 | 192 | 5.2 | 8.7 | 0.00 | 0.00 | 0.00 | 83 | 1016.2 |
| 20260905135020 | 81 | 154 | 2.6 | 7.0 | 0.00 | 0.00 | 0.00 | 84 | 1016.0 |
| 20260905134519 | 80 | 185 | 2.6 | 7.0 | 0.00 | 0.00 | 0.00 | 85 | 1016.1 |
| 20260905134018 | 78 | 141 | 2.6 | 5.2 | 0.00 | 0.00 | 0.00 | 89 | 1016.2 |
| 20260905133514 | 77 | 127 | 4.3 | 6.1 | 0.00 | 0.00 | 0.00 | 92 | 1016.2 |
| 20260905133013 | 76 | 109 | 4.3 | 7.8 | 0.00 | 0.00 | 0.00 | 93 | 1016.0 |
| 20260905132508 | 76 | 103 | 4.3 | 7.0 | 0.00 | 0.00 | 0.00 | 95 | 1016.1 |
| 20260905132008 | 76 | 113 | 0.0 | 0.0 | 0.00 | 0.00 | 0.00 | 95 | 1016.1 |
| 20260905131504 | 76 | 161 | 0.0 | 0.0 | 0.00 | 0.00 | 0.00 | 94 | 1015.7 |
| 20260905130959 | 76 | 158 | 0.0 | 0.0 | 0.00 | 0.00 | 0.00 | 93 | 1015.8 |
| 20260905130458 | 75 | 163 | 0.0 | 0.0 | 0.00 | 0.00 | 0.00 | 97 | 1015.8 |
| 20260905125958 | 75 | 193 | 0.0 | 0.0 | 0.00 | 0.00 | 0.00 | 97 | 1015.7 |
| 20260905125453 | 75 | 162 | 0.0 | 0.0 | 0.00 | 0.00 | 0.00 | 97 | 1015.6 |
| 20260905124948 | 75 | 166 | 0.0 | 0.0 | 0.00 | 0.00 | 0.00 | 97 | 1015.7 |
| 20260905124445 | 75 | 193 | 0.0 | 0.0 | 0.00 | 0.00 | 0.00 | 97 | 1015.5 |
| 20260905123940 | 75 | 190 | 0.0 | 0.0 | 0.00 | 0.00 | 0.00 | 97 | 1015.5 |
| 20260905123437 | 75 | 191 | 0.0 | 0.0 | 0.00 | 0.00 | 0.00 | 97 | 1015.8 |
| 20260905122937 | 74 | 187 | 0.0 | 0.0 | 0.00 | 0.00 | 0.00 | 98 | 1015.6 |
| 20260905122436 | 74 | 170 | 0.0 | 0.0 | 0.00 | 0.00 | 0.00 | 98 | 1015.5 |
| 20260905121932 | 75 | 165 | 0.0 | 0.0 | 0.00 | 0.00 | 0.00 | 98 | 1015.3 |
| 20260905121427 | 75 | 191 | 0.0 | 0.0 | 0.00 | 0.00 | 0.00 | 98 | 1015.6 |
| 20260905120926 | 75 | 194 | 0.0 | 0.0 | 0.00 | 0.00 | 0.00 | 98 | 1015.4 |
| 20260905120421 | 74 | 193 | 0.0 | 0.0 | 0.00 | 0.00 | 0.00 | 98 | 1015.4 |
| 20260905115916 | 74 | 211 | 0.0 | 0.0 | 0.00 | 0.00 | 0.00 | 98 | 1015.5 |
| 20260905115416 | 73 | 206 | 0.0 | 0.0 | 0.00 | 0.00 | 0.00 | 98 | 1015.6 |
| 20260905114911 | 73 | 205 | 0.0 | 0.0 | 0.00 | 0.00 | 0.00 | 98 | 1015.5 |
| 20260905114410 | 73 | 204 | 0.0 | 0.0 | 0.00 | 0.00 | 0.00 | 98 | 1015.4 |
| 20260905113909 | 73 | 190 | 0.0 | 0.0 | 0.00 | 0.00 | 0.00 | 98 | 1015.1 |
| 20260905113405 | 73 | 179 | 0.0 | 0.0 | 0.00 | 0.00 | 0.00 | 98 | 1015.3 |
| 20260905112900 | 73 | 190 | 0.0 | 0.0 | 0.00 | 0.00 | 0.00 | 98 | 1015.3 |
| 20260905112355 | 73 | 207 | 0.0 | 0.0 | 0.00 | 0.00 | 0.00 | 98 | 1015.4 |
| 20260905111845 | 73 | 214 | 0.0 | 0.0 | 0.00 | 0.00 | 0.00 | 98 | 1015.3 |
| 20260905111345 | 73 | 208 | 0.0 | 0.0 | 0.00 | 0.00 | 0.00 | 98 | 1015.3 |
| 20260905110844 | 73 | 203 | 0.0 | 0.0 | 0.00 | 0.00 | 0.00 | 98 | 1015.2 |
| 20260905110344 | 73 | 212 | 0.0 | 0.0 | 0.00 | 0.00 | 0.00 | 98 | 1015.2 |
| 20260905105840 | 73 | 20 | 0.0 | 0.0 | 0.00 | 0.00 | 0.00 | 98 | 1015.2 |
| 20260905105339 | 73 | 48 | 0.0 | 0.0 | 0.00 | 0.00 | 0.00 | 98 | 1015.2 |
| 20260905104838 | 73 | 180 | 0.0 | 0.0 | 0.00 | 0.00 | 0.00 | 98 | 1015.3 |
| 20260905104335 | 73 | 194 | 0.0 | 0.0 | 0.00 | 0.00 | 0.00 | 98 | 1015.5 |
| 20260905103834 | 73 | 206 | 0.0 | 0.0 | 0.00 | 0.00 | 0.00 | 98 | 1015.2 |
| 20260905103330 | 73 | 202 | 0.0 | 0.0 | 0.00 | 0.00 | 0.00 | 98 | 1015.3 |
| 20260905102826 | 73 | 206 | 0.0 | 0.0 | 0.00 | 0.00 | 0.00 | 98 | 1015.2 |
| 20260905102323 | 73 | 198 | 0.0 | 0.0 | 0.00 | 0.00 | 0.00 | 98 | 1015.1 |
| 20260905101822 | 73 | 186 | 0.0 | 0.0 | 0.00 | 0.00 | 0.00 | 98 | 1015.3 |
| 20260905101321 | 73 | 196 | 0.0 | 0.0 | 0.00 | 0.00 | 0.00 | 98 | 1015.2 |
| 20260905100816 | 73 | 196 | 0.0 | 0.0 | 0.00 | 0.00 | 0.00 | 98 | 1015.1 |
| 20260905100312 | 73 | 201 | 0.0 | 0.0 | 0.00 | 0.00 | 0.00 | 98 | 1015.1 |
| 20260905095811 | 73 | 196 | 0.0 | 0.0 | 0.00 | 0.00 | 0.00 | 98 | 1015.2 |
| 20260905095310 | 73 | 200 | 0.0 | 0.0 | 0.00 | 0.00 | 0.00 | 98 | 1015.3 |
| 20260905094805 | 73 | 196 | 0.0 | 0.0 | 0.00 | 0.00 | 0.00 | 98 | 1015.3 |
| 20260905094301 | 73 | 189 | 0.0 | 0.0 | 0.00 | 0.00 | 0.00 | 98 | 1015.2 |
| 20260905093800 | 73 | 182 | 0.0 | 0.0 | 0.00 | 0.00 | 0.00 | 98 | 1015.2 |
| 20260905093256 | 73 | 160 | 0.0 | 0.0 | 0.00 | 0.00 | 0.00 | 98 | 1015.2 |
| 20260905092751 | 73 | 197 | 0.0 | 0.0 | 0.00 | 0.00 | 0.00 | 98 | 1015.1 |
| 20260905092246 | 73 | 221 | 0.0 | 0.0 | 0.00 | 0.00 | 0.00 | 98 | 1015.1 |
| 20260905091746 | 73 | 212 | 0.0 | 0.0 | 0.00 | 0.00 | 0.00 | 98 | 1015.3 |
| 20260905091241 | 73 | 197 | 0.0 | 0.0 | 0.00 | 0.00 | 0.00 | 98 | 1015.0 |
| 20260905090740 | 73 | 186 | 0.0 | 0.0 | 0.00 | 0.00 | 0.00 | 98 | 1015.0 |
| 20260905090236 | 73 | 188 | 0.0 | 0.0 | 0.00 | 0.00 | 0.00 | 98 | 1015.0 |
| 20260905085735 | 73 | 186 | 0.0 | 0.0 | 0.00 | 0.00 | 0.00 | 98 | 1014.9 |
| 20260905085230 | 73 | 194 | 0.0 | 0.0 | 0.00 | 0.00 | 0.00 | 98 | 1014.7 |
| 20260905084730 | 73 | 196 | 0.0 | 0.0 | 0.00 | 0.00 | 0.00 | 98 | 1014.8 |
| 20260905084230 | 73 | 196 | 0.0 | 0.0 | 0.00 | 0.00 | 0.00 | 98 | 1014.8 |
| 20260905083725 | 73 | 197 | 0.0 | 0.0 | 0.00 | 0.00 | 0.00 | 98 | 1014.7 |
| 20260905083220 | 73 | 196 | 0.0 | 0.0 | 0.00 | 0.00 | 0.00 | 98 | 1014.7 |
| 20260905082717 | 74 | 196 | 0.0 | 0.0 | 0.00 | 0.00 | 0.00 | 98 | 1014.6 |
| 20260905082212 | 74 | 196 | 0.0 | 0.0 | 0.00 | 0.00 | 0.00 | 98 | 1014.5 |
| 20260905081712 | 74 | 196 | 0.0 | 0.0 | 0.00 | 0.00 | 0.00 | 98 | 1014.5 |
| 20260905081207 | 74 | 197 | 0.0 | 0.0 | 0.00 | 0.00 | 0.00 | 98 | 1014.6 |
| 20260905080707 | 74 | 197 | 0.0 | 0.0 | 0.00 | 0.00 | 0.00 | 98 | 1014.7 |
| 20260905080206 | 74 | 196 | 0.0 | 0.0 | 0.00 | 0.00 | 0.00 | 98 | 1014.5 |
| 20260905075706 | 74 | 194 | 0.0 | 0.0 | 0.00 | 0.00 | 0.00 | 98 | 1014.7 |
| 20260905075205 | 74 | 196 | 0.0 | 0.0 | 0.00 | 0.00 | 0.00 | 98 | 1014.7 |
| 20260905074704 | 74 | 197 | 0.0 | 0.0 | 0.00 | 0.00 | 0.00 | 98 | 1014.8 |
| 20260905074200 | 74 | 199 | 0.0 | 0.0 | 0.00 | 0.00 | 0.00 | 98 | 1014.5 |
| 20260905073655 | 74 | 199 | 0.0 | 0.0 | 0.00 | 0.00 | 0.00 | 98 | 1014.7 |
| 20260905073151 | 74 | 199 | 0.0 | 0.0 | 0.00 | 0.00 | 0.00 | 98 | 1014.5 |
| 20260905072650 | 74 | 199 | 0.0 | 0.0 | 0.00 | 0.00 | 0.00 | 98 | 1014.7 |
| 20260905072146 | 74 | 197 | 0.0 | 0.0 | 0.00 | 0.00 | 0.00 | 98 | 1014.8 |
| 20260905071642 | 74 | 194 | 0.0 | 0.0 | 0.00 | 0.00 | 0.00 | 98 | 1014.7 |
| 20260905071137 | 75 | 190 | 0.0 | 0.0 | 0.00 | 0.00 | 0.00 | 98 | 1014.7 |
| 20260905070633 | 75 | 180 | 0.0 | 0.0 | 0.00 | 0.00 | 0.00 | 98 | 1014.5 |
| 20260905070129 | 74 | 193 | 0.0 | 0.0 | 0.00 | 0.00 | 0.00 | 98 | 1014.7 |
| 20260905065627 | 74 | 197 | 0.0 | 0.0 | 0.00 | 0.00 | 0.00 | 98 | 1014.8 |
| 20260905065121 | 75 | 198 | 0.0 | 0.0 | 0.00 | 0.00 | 0.00 | 98 | 1015.0 |
| 20260905064616 | 75 | 201 | 0.0 | 0.0 | 0.00 | 0.00 | 0.00 | 98 | 1015.0 |
| 20260905064112 | 75 | 201 | 0.0 | 0.0 | 0.00 | 0.00 | 0.00 | 98 | 1015.4 |
| 20260905063611 | 75 | 197 | 0.0 | 0.0 | 0.00 | 0.00 | 0.00 | 98 | 1015.2 |
| 20260905063108 | 74 | 206 | 0.0 | 0.0 | 0.00 | 0.00 | 0.00 | 98 | 1015.1 |
| 20260905062603 | 75 | 208 | 0.0 | 0.0 | 0.00 | 0.00 | 0.00 | 98 | 1015.2 |
| 20260905062102 | 75 | 206 | 0.0 | 0.0 | 0.00 | 0.00 | 0.00 | 98 | 1015.0 |
| 20260905061557 | 75 | 204 | 0.0 | 0.0 | 0.00 | 0.00 | 0.00 | 98 | 1015.1 |
| 20260905061056 | 75 | 201 | 0.0 | 0.0 | 0.00 | 0.00 | 0.00 | 98 | 1015.3 |
| 20260905060552 | 75 | 203 | 0.0 | 0.0 | 0.00 | 0.00 | 0.00 | 98 | 1015.4 |
| 20260905060048 | 75 | 203 | 0.0 | 0.0 | 0.00 | 0.00 | 0.00 | 98 | 1015.3 |
| 20260905055547 | 75 | 209 | 0.0 | 0.0 | 0.00 | 0.00 | 0.00 | 98 | 1015.3 |
| 20260905055042 | 75 | 195 | 0.0 | 0.0 | 0.00 | 0.00 | 0.00 | 98 | 1015.3 |
| 20260905054538 | 75 | 188 | 0.0 | 0.0 | 0.00 | 0.00 | 0.00 | 98 | 1015.3 |
| 20260905054033 | 75 | 184 | 0.0 | 0.0 | 0.00 | 0.00 | 0.00 | 98 | 1015.5 |
| 20260905053532 | 75 | 175 | 0.0 | 0.0 | 0.00 | 0.00 | 0.00 | 98 | 1015.3 |
| 20260905053028 | 75 | 176 | 0.0 | 0.0 | 0.00 | 0.00 | 0.00 | 98 | 1015.3 |
| 20260905052527 | 75 | 181 | 0.0 | 0.0 | 0.00 | 0.00 | 0.00 | 98 | 1015.4 |
| 20260905052022 | 75 | 181 | 0.0 | 0.0 | 0.00 | 0.00 | 0.00 | 98 | 1015.3 |
| 20260905051518 | 76 | 183 | 0.0 | 0.0 | 0.00 | 0.00 | 0.00 | 98 | 1015.2 |
| 20260905051015 | 76 | 181 | 0.0 | 0.0 | 0.00 | 0.00 | 0.00 | 98 | 1015.4 |
| 20260905050510 | 76 | 169 | 0.0 | 0.0 | 0.00 | 0.00 | 0.00 | 98 | 1015.5 |
| 20260905050007 | 76 | 163 | 0.0 | 0.0 | 0.00 | 0.00 | 0.00 | 98 | 1015.3 |
| 20260905045501 | 76 | 193 | 0.0 | 0.0 | 0.00 | 0.00 | 0.00 | 98 | 1015.4 |
| 20260905044956 | 76 | 192 | 0.0 | 0.0 | 0.00 | 0.00 | 0.00 | 98 | 1015.3 |
| 20260905044451 | 75 | 186 | 0.0 | 0.0 | 0.00 | 0.00 | 0.00 | 98 | 1015.4 |
| 20260905043950 | 75 | 183 | 0.0 | 0.0 | 0.00 | 0.00 | 0.00 | 97 | 1015.5 |
| 20260905043450 | 75 | 199 | 0.0 | 0.0 | 0.00 | 0.00 | 0.00 | 98 | 1015.4 |
| 20260905042945 | 75 | 198 | 0.0 | 0.0 | 0.00 | 0.00 | 0.00 | 97 | 1015.2 |
| 20260905042438 | 75 | 202 | 0.0 | 0.0 | 0.00 | 0.00 | 0.00 | 98 | 1015.4 |
| 20260905041934 | 76 | 205 | 0.0 | 0.0 | 0.00 | 0.00 | 0.00 | 97 | 1015.6 |
| 20260905041430 | 76 | 207 | 0.0 | 0.0 | 0.00 | 0.00 | 0.00 | 97 | 1015.7 |
| 20260905040930 | 76 | 209 | 0.0 | 0.0 | 0.00 | 0.00 | 0.00 | 97 | 1015.6 |
| 20260905040424 | 76 | 196 | 0.0 | 0.0 | 0.00 | 0.00 | 0.00 | 97 | 1015.8 |
| 20260905035923 | 77 | 195 | 0.0 | 0.0 | 0.00 | 0.00 | 0.00 | 97 | 1015.7 |
| 20260905035419 | 76 | 192 | 0.0 | 0.0 | 0.00 | 0.00 | 0.00 | 97 | 1015.8 |
| 20260905034916 | 77 | 191 | 0.0 | 0.0 | 0.00 | 0.00 | 0.00 | 97 | 1015.7 |
| 20260905034411 | 77 | 190 | 0.0 | 0.0 | 0.00 | 0.00 | 0.00 | 97 | 1015.7 |
| 20260905033909 | 76 | 180 | 0.0 | 0.0 | 0.00 | 0.00 | 0.00 | 97 | 1015.7 |
| 20260905033405 | 77 | 190 | 0.0 | 0.0 | 0.00 | 0.00 | 0.00 | 97 | 1015.8 |
| 20260905032904 | 77 | 186 | 0.0 | 0.0 | 0.00 | 0.00 | 0.00 | 97 | 1015.7 |
| 20260905032400 | 77 | 195 | 0.0 | 0.0 | 0.00 | 0.00 | 0.00 | 97 | 1015.9 |
| 20260905031855 | 77 | 196 | 0.0 | 0.0 | 0.00 | 0.00 | 0.00 | 97 | 1015.8 |
| 20260905031350 | 77 | 192 | 0.0 | 0.0 | 0.00 | 0.00 | 0.00 | 97 | 1015.9 |
| 20260905030845 | 77 | 170 | 0.0 | 0.0 | 0.00 | 0.00 | 0.00 | 96 | 1015.8 |
| 20260905030341 | 77 | 189 | 0.0 | 0.0 | 0.00 | 0.00 | 0.00 | 96 | 1015.8 |
| 20260905025840 | 77 | 205 | 0.0 | 0.0 | 0.00 | 0.00 | 0.00 | 96 | 1015.9 |
| 20260905025336 | 77 | 197 | 0.0 | 0.0 | 0.00 | 0.00 | 0.00 | 96 | 1015.7 |
| 20260905024832 | 77 | 193 | 0.0 | 0.0 | 0.00 | 0.00 | 0.00 | 96 | 1015.6 |
| 20260905024327 | 77 | 194 | 0.0 | 0.0 | 0.00 | 0.00 | 0.00 | 96 | 1015.7 |
| 20260905023822 | 77 | 195 | 0.0 | 0.0 | 0.00 | 0.00 | 0.00 | 96 | 1015.5 |
| 20260905023318 | 77 | 197 | 0.0 | 0.0 | 0.00 | 0.00 | 0.00 | 96 | 1015.5 |
| 20260905022816 | 77 | 188 | 0.0 | 0.0 | 0.00 | 0.00 | 0.00 | 96 | 1015.5 |
| 20260905022312 | 78 | 178 | 0.0 | 0.0 | 0.00 | 0.00 | 0.00 | 95 | 1015.5 |
| 20260905021807 | 78 | 181 | 0.0 | 0.0 | 0.00 | 0.00 | 0.00 | 96 | 1015.3 |
| 20260905021302 | 78 | 200 | 0.0 | 0.0 | 0.00 | 0.00 | 0.00 | 95 | 1015.6 |
| 20260905020801 | 78 | 209 | 0.0 | 0.0 | 0.00 | 0.00 | 0.00 | 95 | 1015.6 |
| 20260905020257 | 78 | 178 | 0.0 | 0.0 | 0.00 | 0.00 | 0.00 | 95 | 1015.8 |
| 20260905015755 | 78 | 182 | 0.0 | 0.0 | 0.00 | 0.00 | 0.00 | 95 | 1015.5 |
| 20260905015250 | 78 | 189 | 0.0 | 0.0 | 0.00 | 0.00 | 0.00 | 95 | 1015.7 |
| 20260905014749 | 78 | 187 | 0.0 | 0.0 | 0.00 | 0.00 | 0.00 | 95 | 1015.6 |
| 20260905014245 | 78 | 189 | 0.0 | 0.0 | 0.00 | 0.00 | 0.00 | 94 | 1015.6 |
| 20260905013740 | 78 | 186 | 0.0 | 0.0 | 0.00 | 0.00 | 0.00 | 94 | 1015.2 |
| 20260905013236 | 79 | 147 | 0.0 | 0.0 | 0.00 | 0.00 | 0.00 | 93 | 1015.2 |
| 20260905012731 | 79 | 172 | 0.0 | 0.0 | 0.00 | 0.00 | 0.00 | 93 | 1015.3 |
| 20260905012227 | 79 | 189 | 0.0 | 0.0 | 0.00 | 0.00 | 0.00 | 93 | 1015.3 |
| 20260905011724 | 79 | 190 | 0.0 | 0.0 | 0.00 | 0.00 | 0.00 | 93 | 1015.2 |
| 20260905011219 | 79 | 190 | 0.0 | 0.0 | 0.00 | 0.00 | 0.00 | 93 | 1015.3 |
| 20260905010719 | 79 | 189 | 0.0 | 0.0 | 0.00 | 0.00 | 0.00 | 91 | 1015.3 |
| 20260905010215 | 80 | 197 | 0.0 | 0.0 | 0.00 | 0.00 | 0.00 | 90 | 1015.2 |
| 20260905005711 | 80 | 185 | 0.0 | 0.0 | 0.00 | 0.00 | 0.00 | 90 | 1015.0 |
| 20260905005207 | 80 | 185 | 0.0 | 0.0 | 0.00 | 0.00 | 0.00 | 90 | 1015.1 |
| 20260905004700 | 80 | 184 | 0.0 | 0.0 | 0.00 | 0.00 | 0.00 | 89 | 1015.0 |
| 20260905004155 | 81 | 183 | 0.0 | 0.0 | 0.00 | 0.00 | 0.00 | 88 | 1015.0 |
| 20260905003651 | 81 | 187 | 0.0 | 0.0 | 0.00 | 0.00 | 0.00 | 88 | 1015.2 |
| 20260905003147 | 82 | 188 | 0.0 | 0.0 | 0.00 | 0.00 | 0.00 | 90 | 1015.0 |
| 20260905002643 | 82 | 188 | 0.0 | 0.0 | 0.00 | 0.00 | 0.00 | 87 | 1014.9 |
| 20260905002142 | 82 | 188 | 0.0 | 0.0 | 0.00 | 0.00 | 0.00 | 87 | 1014.8 |
| 20260905001638 | 82 | 185 | 0.0 | 0.0 | 0.00 | 0.00 | 0.00 | 88 | 1015.0 |
| 20260905001137 | 83 | 177 | 0.0 | 0.0 | 0.00 | 0.00 | 0.00 | 86 | 1014.9 |
| 20260905000632 | 84 | 182 | 0.0 | 0.0 | 0.00 | 0.00 | 0.00 | 86 | 1014.9 |
| 20260905000129 | 85 | 172 | 0.0 | 0.0 | 0.00 | 0.00 | 0.00 | 82 | 1015.0 |
| 20260904235628 | 86 | 201 | 0.0 | 0.0 | 0.00 | 0.00 | 0.00 | 81 | 1015.0 |
| 20260904235127 | 87 | 220 | 0.0 | 0.0 | 0.00 | 0.00 | 0.00 | 75 | 1014.9 |
| 20260904234623 | 88 | 199 | 0.0 | 0.0 | 0.00 | 0.00 | 0.00 | 78 | 1014.8 |
| 20260904234118 | 87 | 199 | 0.0 | 0.0 | 0.00 | 0.00 | 0.00 | 81 | 1014.9 |
| 20260904233614 | 87 | 211 | 0.0 | 0.0 | 0.00 | 0.00 | 0.00 | 79 | 1015.1 |
| 20260904233110 | 88 | 216 | 0.0 | 0.0 | 0.00 | 0.00 | 0.00 | 80 | 1014.9 |
| 20260904232606 | 90 | 190 | 0.0 | 0.0 | 0.00 | 0.00 | 0.00 | 77 | 1015.0 |
| 20260904232103 | 91 | 192 | 0.0 | 0.0 | 0.00 | 0.00 | 0.00 | 74 | 1015.0 |
| 20260904231558 | 93 | 195 | 0.0 | 0.0 | 0.00 | 0.00 | 0.00 | 67 | 1015.0 |
| 20260904231053 | 93 | 203 | 0.0 | 0.9 | 0.00 | 0.00 | 0.00 | 62 | 1014.7 |
| 20260904230552 | 92 | 209 | 0.0 | 0.9 | 0.00 | 0.00 | 0.00 | 64 | 1014.7 |
| 20260904230048 | 92 | 207 | 0.9 | 2.6 | 0.00 | 0.00 | 0.00 | 65 | 1014.9 |
| 20260904225545 | 93 | 214 | 0.9 | 0.9 | 0.00 | 0.00 | 0.00 | 62 | 1014.9 |
| 20260904225045 | 93 | 229 | 1.7 | 1.7 | 0.00 | 0.00 | 0.00 | 61 | 1014.7 |
| 20260904224540 | 93 | 204 | 0.0 | 1.7 | 0.00 | 0.00 | 0.00 | 62 | 1014.7 |
| 20260904224040 | 93 | 223 | 0.9 | 1.7 | 0.00 | 0.00 | 0.00 | 61 | 1014.6 |
| 20260904223539 | 93 | 200 | 1.7 | 3.5 | 0.00 | 0.00 | 0.00 | 60 | 1014.8 |
| 20260904223035 | 93 | 223 | 0.9 | 6.1 | 0.00 | 0.00 | 0.00 | 59 | 1014.7 |
| 20260904222530 | 93 | 220 | 1.7 | 1.7 | 0.00 | 0.00 | 0.00 | 60 | 1014.7 |
| 20260904222025 | 93 | 217 | 0.9 | 2.6 | 0.00 | 0.00 | 0.00 | 61 | 1014.8 |
| 20260904221520 | 93 | 208 | 1.7 | 3.5 | 0.00 | 0.00 | 0.00 | 58 | 1014.7 |
| 20260904221015 | 95 | 225 | 1.7 | 1.7 | 0.00 | 0.00 | 0.00 | 58 | 1014.6 |
| 20260904220515 | 94 | 213 | 1.7 | 2.6 | 0.00 | 0.00 | 0.00 | 59 | 1014.8 |
| 20260904220011 | 93 | 208 | 1.7 | 2.6 | 0.00 | 0.00 | 0.00 | 60 | 1014.6 |
| 20260904215510 | 94 | 235 | 1.7 | 3.5 | 0.00 | 0.00 | 0.00 | 59 | 1014.9 |
| 20260904215006 | 94 | 206 | 1.7 | 5.2 | 0.00 | 0.00 | 0.00 | 58 | 1014.9 |
| 20260904214502 | 93 | 213 | 0.9 | 3.5 | 0.00 | 0.00 | 0.00 | 60 | 1015.0 |
| 20260904214002 | 93 | 241 | 2.6 | 3.5 | 0.00 | 0.00 | 0.00 | 60 | 1015.0 |
| 20260904213500 | 94 | 261 | 3.5 | 5.2 | 0.00 | 0.00 | 0.00 | 61 | 1015.1 |
| 20260904212957 | 94 | 216 | 2.6 | 5.2 | 0.00 | 0.00 | 0.00 | 62 | 1014.9 |
| 20260904212457 | 94 | 212 | 1.7 | 3.5 | 0.00 | 0.00 | 0.00 | 65 | 1015.2 |
| 20260904211952 | 94 | 222 | 1.7 | 7.8 | 0.00 | 0.00 | 0.00 | 61 | 1015.0 |
| 20260904211452 | 94 | 217 | 2.6 | 3.5 | 0.00 | 0.00 | 0.00 | 61 | 1015.2 |
| 20260904210948 | 94 | 248 | 4.3 | 6.1 | 0.00 | 0.00 | 0.00 | 59 | 1015.0 |
| 20260904210446 | 94 | 234 | 1.7 | 6.1 | 0.00 | 0.00 | 0.00 | 63 | 1015.1 |
| 20260904205942 | 94 | 275 | 2.6 | 5.2 | 0.00 | 0.00 | 0.00 | 59 | 1015.2 |
| 20260904205438 | 94 | 229 | 1.7 | 6.1 | 0.00 | 0.00 | 0.00 | 57 | 1015.3 |